Weather History for Port Isabel, TX

Change the Weather History Date:

Wednesday, March 28, 2012

  Actual Average Record
Temperature  
Mean Temperature 78 °F -  
Max Temperature 84 °F - - ()
Min Temperature 71 °F - - ()
Cooling Degree Days 12    
Growing Degree Days 28 (Base 50)    
Moisture  
Dew Point 70 °F    
Average Humidity 80    
Maximum Humidity 93    
Minimum Humidity 62    
Precipitation  
Precipitation 0.00 in - - ()
Sea Level Pressure  
Sea Level Pressure 29.96 in    
Wind  
Wind Speed 13 mph (SE)    
Max Wind Speed 24 mph    
Max Gust Speed 31 mph    
Visibility 8 miles    
Events      
T = Trace of Precipitation, MM = Missing Value Source: NWS Daily Summary

Daily Weather History Graph

Daily Weather History Graph

Search for Another Location

Airport:

Trip Planner

Search our weather history database for the weather conditions in past years. The results will help you decide how hot, cold, wet, or windy it might be!

Date:

Astronomy

Mar. 28, 2012 Rise Set
Actual Time 7:24 AM CDT 7:44 PM CDT
Civil Twilight 7:01 AM CDT 8:07 PM CDT
Nautical Twilight 6:34 AM CDT 8:34 PM CDT
Astronomical Twilight 6:06 AM CDT 9:02 PM CDT
Moon 11:11 AM CDT (3/28) 12:19 AM CDT (3/28)
Length of Visible Light 13h 06m
Length of Day
12h 20m
Waxing Crescent, 30% of the Moon is Illuminated
Mar 28
Waxing Crescent
Mar 30
First Quarter
Apr 6
Full
Apr 13
Last Quarter
Apr 21
New

Hourly Weather History & Observations

Time (CDT) Temp. Heat Index Dew Point Humidity Pressure Visibility Wind Dir Wind Speed Gust Speed Precip Events Conditions
12:53 AM 73.9 °F - 69.1 °F 85% 30.01 in 9.0 mi SE 9.2 mph - N/A   Scattered Clouds
1:53 AM 73.9 °F - 69.1 °F 85% 29.97 in 9.0 mi SE 15.0 mph - N/A   Clear
2:39 AM 73.4 °F - 69.8 °F 88% 29.96 in 9.0 mi SE 13.8 mph 21.9 mph N/A   Mostly Cloudy
2:53 AM 73.9 °F - 69.1 °F 85% 29.95 in 9.0 mi SE 15.0 mph - N/A   Mostly Cloudy
3:05 AM 73.4 °F - 69.8 °F 88% 29.93 in 9.0 mi SE 15.0 mph 24.2 mph N/A   Scattered Clouds
3:53 AM 73.9 °F - 69.1 °F 85% 29.93 in 9.0 mi SE 16.1 mph - N/A   Scattered Clouds
4:13 AM 73.4 °F - 69.8 °F 88% 29.94 in 9.0 mi SE 15.0 mph - N/A   Mostly Cloudy
4:31 AM 73.4 °F - 69.8 °F 88% 29.95 in 9.0 mi SE 12.7 mph - N/A   Mostly Cloudy
4:53 AM 73.9 °F - 69.1 °F 85% 29.96 in 9.0 mi SE 9.2 mph - N/A   Overcast
4:57 AM 73.4 °F - 69.8 °F 88% 29.96 in 9.0 mi SE 9.2 mph - N/A   Overcast
5:53 AM 72.0 °F - 69.1 °F 91% 29.97 in 9.0 mi ESE 4.6 mph - N/A   Scattered Clouds
6:53 AM 71.1 °F - 68.0 °F 90% 29.99 in 7.0 mi ESE 5.8 mph - N/A   Clear
7:53 AM 71.1 °F - 69.1 °F 93% 29.99 in 6.0 mi SE 5.8 mph - N/A   Clear
8:53 AM 75.0 °F - 70.0 °F 84% 30.01 in 7.0 mi ESE 8.1 mph - N/A   Clear
9:53 AM 78.1 °F - 70.0 °F 76% 30.01 in 8.0 mi SE 11.5 mph - N/A   Clear
10:29 AM 78.8 °F - 69.8 °F 74% 30.01 in 8.0 mi ESE 13.8 mph 20.7 mph N/A   Mostly Cloudy
10:40 AM 78.8 °F - 69.8 °F 74% 30.01 in 8.0 mi East 15.0 mph - N/A   Mostly Cloudy
10:53 AM 79.0 °F - 70.0 °F 74% 30.01 in 8.0 mi ESE 13.8 mph - N/A   Mostly Cloudy
11:53 AM 81.0 °F 84.4 °F 70.0 °F 69% 29.99 in 8.0 mi ESE 19.6 mph - N/A   Mostly Cloudy
12:53 PM 82.0 °F 85.9 °F 70.0 °F 67% 29.98 in 8.0 mi SE 20.7 mph 26.5 mph N/A   Mostly Cloudy
1:06 PM 82.4 °F 86.3 °F 69.8 °F 66% 29.97 in 8.0 mi SE 21.9 mph 27.6 mph N/A   Mostly Cloudy
1:36 PM 82.4 °F 86.3 °F 69.8 °F 66% 29.96 in 8.0 mi SE 24.2 mph 31.1 mph N/A   Mostly Cloudy
1:53 PM 81.0 °F 84.1 °F 69.1 °F 67% 29.96 in 8.0 mi ESE 18.4 mph 27.6 mph N/A   Mostly Cloudy
2:36 PM 84.2 °F 88.4 °F 69.8 °F 62% 29.94 in 8.0 mi SE 23.0 mph 27.6 mph N/A   Scattered Clouds
2:53 PM 82.0 °F 85.5 °F 69.1 °F 65% 29.93 in 8.0 mi SE 23.0 mph 29.9 mph N/A   Partly Cloudy
3:53 PM 81.0 °F 84.4 °F 70.0 °F 69% 29.93 in 8.0 mi ESE 18.4 mph 24.2 mph N/A   Mostly Cloudy
4:53 PM 81.0 °F 84.9 °F 71.1 °F 72% 29.91 in 8.0 mi ESE 17.3 mph 23.0 mph N/A   Mostly Cloudy
5:53 PM 79.0 °F - 71.1 °F 77% 29.89 in 8.0 mi ESE 15.0 mph - N/A   Clear
6:53 PM 77.0 °F - 70.0 °F 79% 29.89 in 8.0 mi ESE 15.0 mph - N/A   Clear
7:53 PM 75.0 °F - 71.1 °F 87% 29.91 in 8.0 mi ESE 12.7 mph - N/A   Mostly Cloudy
8:53 PM 75.0 °F - 70.0 °F 84% 29.92 in 8.0 mi SE 13.8 mph - N/A   Mostly Cloudy
9:07 PM 75.2 °F - 69.8 °F 83% 29.92 in 8.0 mi SE 12.7 mph - N/A   Scattered Clouds
9:39 PM 75.2 °F - 69.8 °F 83% 29.93 in 8.0 mi SE 13.8 mph - N/A   Partly Cloudy
9:53 PM 75.0 °F - 71.1 °F 87% 29.94 in 8.0 mi SE 11.5 mph - N/A   Scattered Clouds
10:53 PM 73.9 °F - 71.1 °F 91% 29.95 in 8.0 mi SE 11.5 mph - N/A   Scattered Clouds
11:53 PM 73.9 °F - 71.1 °F 91% 29.93 in 8.0 mi ESE 12.7 mph - N/A   Partly Cloudy